SCOUT A DEB, 2226

Orbit data source: Space-Track

SCOUT A DEB, 2226 is space debris in LEO originally from a launch on Wed, 22 Dec 1965 UTC launched from the Air Force Western Test Range (AFWTR). Debris objects in space refer to the collection of defunct objects orbiting the Earth. Examples of debris include non-operational satellites, rocket bodies, and fragments generated from explosions, collisions, or faulty payload assembly.

Loading next visibility...
Identifier
2226, 1965-109D
Orbit
LEO
Country
Flag of USUS
Related business
Manufacturer
Unknown
Mission
Spacecraft
Bus & Motor
Unknown
Mass
Unknown
Launch date (UTC)
1965-12-22 (60 years ago)
Launch vehicle
Unknown
Launch site
Air Force Western Test Range (AFWTR)
Object type
Payload
Rocket body
Debris
Shape & HBR
Unknown
Radar Cross Section
Small (<0.1 m²)

Expand to show TLE details & history
Last TLE update: 2 days ago

TLE from 2 days ago
0 SCOUT A DEB
1 02226U 65109D   25240.97354633  .00000206  00000-0  24561-3 0  9995
2 02226  89.0700 334.6590 0248343 168.9716 191.7024 13.51168598914229
Epoch: 2025-08-28T23:21Z
TLE epoch observation values (Epoch: 2025-08-28T23:21:54.402Z)
Latitude
-0.00001°
Longitude
6.75346°
Altitude
1,252.213 km
Speed
7.141 km/s
True Right ascension
22h 18m 38s
True Declination
0° 00' 00"
Sunlit
Object was in full shadow at epoch
Visualization orbit readout
Latitude
Unknown
Longitude
Unknown
Altitude
Unknown
Speed
Unknown
Apparent Right ascension
Unknown
Apparent Declination
Unknown
Sunlit
N/A
Visualization observer readout
Local Sidereal Time
22:12:15
Azimuth
Unknown
Elevation
Unknown
Doppler factor
Unknown
Orbital elements
Apogee altitude
1,249.855 km
Perigee altitude
880.164 km
Semi-major axis
7,443.147 km
Eccentricity
0.02483
Inclination
89.07°
RAAN
334.659°
Arg. of periapsis
168.9716°
True anomaly
191.14225°
Mean anomaly
191.7024°
Eccentric anomaly
191.42065°
Mean motion
3.37993 °/min
Orbital period
106.51 mins
BSTAR
0.00024561
Loading maneuver chart data...
Computing Atmospheric mass density...
Loading historical data...
Loading historical data...
Loading historical data...
Loading historical data...
Loading historical data...
Loading historical data...
Loading historical data...

Documentation

Showing up to 5 results
|